Time,TemperatureF,DewpointF,PressureIn,WindDirection,WindDirectionDegrees,WindSpeedMPH,WindSpeedGustMPH,Humidity,HourlyPrecipIn,Conditions,Clouds,dailyrainin,SoftwareType,DateUTC
2013-06-23 00:09:00,71.1,-21.5,29.79,SSE,157,0.0,-999.0,2,-99.99,,,0.00,Acu-Link.com,2013-06-23 05:09:00,
2013-06-23 00:46:00,71.2,41.4,29.78,SSE,157,0.0,-999.0,34,-99.99,,,0.00,Acu-Link.com,2013-06-23 05:46:00,
2013-06-23 01:01:00,71.4,36.6,29.77,SSE,157,0.0,-999.0,28,-99.99,,,0.00,Acu-Link.com,2013-06-23 06:01:00,
2013-06-23 01:16:00,71.8,34.1,29.78,SE,135,0.0,-999.0,25,-99.99,,,0.00,Acu-Link.com,2013-06-23 06:16:00,
2013-06-23 01:32:00,72.1,30.0,29.77,SE,135,1.1,-999.0,21,-99.99,,,0.00,Acu-Link.com,2013-06-23 06:32:00,
2013-06-23 01:47:00,71.8,35.1,29.77,SE,135,0.0,-999.0,26,-99.99,,,0.00,Acu-Link.com,2013-06-23 06:47:00,
2013-06-23 02:02:00,72.1,33.3,29.76,SE,135,3.7,-999.0,24,-99.99,,,0.00,Acu-Link.com,2013-06-23 07:02:00,
2013-06-23 02:18:00,72.0,33.2,29.76,SE,135,3.2,-999.0,24,-99.99,,,0.00,Acu-Link.com,2013-06-23 07:18:00,
2013-06-23 02:52:00,70.7,28.9,29.77,South,180,0.0,-999.0,21,-99.99,,,0.00,Acu-Link.com,2013-06-23 07:52:00,
2013-06-23 03:08:00,70.2,33.7,29.78,South,180,0.0,-999.0,26,-99.99,,,0.00,Acu-Link.com,2013-06-23 08:08:00,
2013-06-23 03:23:00,69.6,33.2,29.78,South,180,0.0,-999.0,26,-99.99,,,0.00,Acu-Link.com,2013-06-23 08:23:00,
2013-06-23 03:38:00,69.3,46.4,29.78,South,180,0.0,-999.0,44,-99.99,,,0.00,Acu-Link.com,2013-06-23 08:38:00,
2013-06-23 03:53:00,68.9,46.7,29.79,South,180,0.0,-999.0,45,-99.99,,,0.00,Acu-Link.com,2013-06-23 08:53:00,
2013-06-23 04:08:00,68.7,48.8,29.80,South,180,0.0,-999.0,49,-99.99,,,0.00,Acu-Link.com,2013-06-23 09:08:00,
2013-06-23 04:23:00,69.1,52.7,29.80,South,180,0.0,-999.0,56,-99.99,,,0.00,Acu-Link.com,2013-06-23 09:23:00,
2013-06-23 04:38:00,68.5,51.2,29.81,South,180,0.0,-999.0,54,-99.99,,,0.00,Acu-Link.com,2013-06-23 09:38:00,
2013-06-23 04:54:00,68.4,50.6,29.82,South,180,0.0,-999.0,53,-99.99,,,0.00,Acu-Link.com,2013-06-23 09:54:00,
2013-06-23 05:09:00,67.8,50.0,29.82,South,180,0.0,-999.0,53,-99.99,,,0.00,Acu-Link.com,2013-06-23 10:09:00,
2013-06-23 05:24:00,67.8,50.5,29.83,South,180,0.0,-999.0,54,-99.99,,,0.00,Acu-Link.com,2013-06-23 10:24:00,
2013-06-23 05:39:00,68.5,51.7,29.82,South,180,0.0,-999.0,55,-99.99,,,0.00,Acu-Link.com,2013-06-23 10:39:00,
2013-06-23 05:55:00,69.3,53.9,29.82,South,180,0.0,-999.0,58,-99.99,,,0.00,Acu-Link.com,2013-06-23 10:55:00,
2013-06-23 06:10:00,71.1,53.1,29.83,South,180,0.0,-999.0,53,-99.99,,,0.00,Acu-Link.com,2013-06-23 11:10:00,
2013-06-23 06:25:00,73.2,8.4,29.83,South,180,0.0,-999.0,8,-99.99,,,0.00,Acu-Link.com,2013-06-23 11:25:00,
2013-06-23 06:40:00,75.2,74.6,29.84,SSE,157,0.0,-999.0,98,-99.99,,,0.00,Acu-Link.com,2013-06-23 11:40:00,
2013-06-23 06:55:00,76.3,75.7,29.84,SSE,157,1.1,-999.0,98,-99.99,,,0.00,Acu-Link.com,2013-06-23 11:55:00,
2013-06-23 07:10:00,78.3,78.0,29.84,SE,135,0.0,-999.0,99,-99.99,,,0.00,Acu-Link.com,2013-06-23 12:10:00,
2013-06-23 07:26:00,79.5,79.2,29.84,SE,135,3.7,-999.0,99,-99.99,,,0.00,Acu-Link.com,2013-06-23 12:26:00,
2013-06-23 07:42:00,78.8,78.5,29.85,South,180,3.7,-999.0,99,-99.99,,,0.00,Acu-Link.com,2013-06-23 12:42:00,
2013-06-23 07:57:00,81.0,80.7,29.85,SE,135,3.2,-999.0,99,-99.99,,,0.00,Acu-Link.com,2013-06-23 12:57:00,
2013-06-23 08:12:00,83.1,82.8,29.86,SSE,157,2.7,-999.0,99,-99.99,,,0.00,Acu-Link.com,2013-06-23 13:12:00,
2013-06-23 08:27:00,81.7,81.4,29.86,ESE,112,0.0,-999.0,99,-99.99,,,0.00,Acu-Link.com,2013-06-23 13:27:00,
2013-06-23 08:42:00,82.0,81.7,29.87,SSW,202,0.0,-999.0,99,-99.99,,,0.00,Acu-Link.com,2013-06-23 13:42:00,
2013-06-23 08:57:00,83.7,81.5,29.86,SE,135,5.3,-999.0,93,-99.99,,,0.00,Acu-Link.com,2013-06-23 13:57:00,
2013-06-23 09:50:00,84.0,82.7,29.86,SW,225,7.3,-999.0,96,-99.99,,,0.00,Acu-Link.com,2013-06-23 14:50:00,
2013-06-23 10:05:00,85.3,82.0,29.86,SW,225,3.2,-999.0,90,-99.99,,,0.00,Acu-Link.com,2013-06-23 15:05:00,
2013-06-23 10:20:00,84.4,80.8,29.87,South,180,3.2,-999.0,89,-99.99,,,0.00,Acu-Link.com,2013-06-23 15:20:00,
2013-06-23 10:36:00,83.7,79.4,29.86,SE,135,6.8,-999.0,87,-99.99,,,0.00,Acu-Link.com,2013-06-23 15:36:00,
2013-06-23 10:51:00,86.0,80.2,29.85,SE,135,9.4,-999.0,83,-99.99,,,0.00,Acu-Link.com,2013-06-23 15:51:00,
2013-06-23 11:06:00,86.9,80.7,29.85,SE,135,4.2,-999.0,82,-99.99,,,0.00,Acu-Link.com,2013-06-23 16:06:00,
2013-06-23 11:21:00,89.2,80.6,29.84,ESE,112,8.3,-999.0,76,-99.99,,,0.00,Acu-Link.com,2013-06-23 16:21:00,
2013-06-23 11:41:00,88.3,81.3,29.84,SSE,157,2.7,-999.0,80,-99.99,,,0.00,Acu-Link.com,2013-06-23 16:41:00,
2013-06-23 11:56:00,89.6,81.4,29.85,ESE,112,1.7,-999.0,77,-99.99,,,0.00,Acu-Link.com,2013-06-23 16:56:00,
2013-06-23 12:13:00,90.0,80.6,29.84,West,270,0.0,-999.0,74,-99.99,,,0.00,Acu-Link.com,2013-06-23 17:13:00,
2013-06-23 12:38:00,90.1,80.7,29.83,East,90,9.9,-999.0,74,-99.99,,,0.00,Acu-Link.com,2013-06-23 17:38:00,
2013-06-23 12:53:00,90.0,81.0,29.83,SW,225,5.3,-999.0,75,-99.99,,,0.00,Acu-Link.com,2013-06-23 17:53:00,
2013-06-23 13:08:00,89.2,78.1,29.83,SSE,157,0.0,-999.0,70,-99.99,,,0.00,Acu-Link.com,2013-06-23 18:08:00,
2013-06-23 13:24:00,88.0,77.4,29.83,SE,135,3.7,-999.0,71,-99.99,,,0.00,Acu-Link.com,2013-06-23 18:24:00,
2013-06-23 13:39:00,88.9,80.7,29.82,South,180,0.0,-999.0,77,-99.99,,,0.00,Acu-Link.com,2013-06-23 18:39:00,
2013-06-23 13:54:00,88.3,79.7,29.82,ESE,112,3.2,-999.0,76,-99.99,,,0.00,Acu-Link.com,2013-06-23 18:54:00,
2013-06-23 14:09:00,90.7,81.2,29.82,WNW,292,0.0,-999.0,74,-99.99,,,0.00,Acu-Link.com,2013-06-23 19:09:00,
2013-06-23 14:24:00,91.0,81.9,29.82,WNW,292,0.0,-999.0,75,-99.99,,,0.00,Acu-Link.com,2013-06-23 19:24:00,
2013-06-23 14:39:00,87.8,78.0,29.82,ESE,112,0.0,-999.0,73,-99.99,,,0.00,Acu-Link.com,2013-06-23 19:39:00,
2013-06-23 14:54:00,91.2,80.4,29.81,NE,45,0.0,-999.0,71,-99.99,,,0.00,Acu-Link.com,2013-06-23 19:54:00,
2013-06-23 15:09:00,90.1,80.2,29.80,SE,135,0.0,-999.0,73,-99.99,,,0.00,Acu-Link.com,2013-06-23 20:09:00,
2013-06-23 15:24:00,88.5,80.3,29.80,NW,315,0.0,-999.0,77,-99.99,,,0.00,Acu-Link.com,2013-06-23 20:24:00,
2013-06-23 15:40:00,88.2,80.4,29.80,North,0,0.0,-999.0,78,-99.99,,,0.00,Acu-Link.com,2013-06-23 20:40:00,
2013-06-23 15:55:00,90.0,80.2,29.78,ESE,112,0.0,-999.0,73,-99.99,,,0.00,Acu-Link.com,2013-06-23 20:55:00,
2013-06-23 16:10:00,87.8,79.7,29.77,South,180,5.8,-999.0,77,-99.99,,,0.00,Acu-Link.com,2013-06-23 21:10:00,
2013-06-23 16:25:00,88.5,80.7,29.77,ESE,112,4.2,-999.0,78,-99.99,,,0.00,Acu-Link.com,2013-06-23 21:25:00,
2013-06-23 16:40:00,86.5,79.2,29.77,ESE,112,0.0,-999.0,79,-99.99,,,0.00,Acu-Link.com,2013-06-23 21:40:00,
2013-06-23 16:55:00,88.3,80.5,29.77,NE,45,0.0,-999.0,78,-99.99,,,0.00,Acu-Link.com,2013-06-23 21:55:00,
2013-06-23 17:10:00,88.3,79.3,29.77,SE,135,3.2,-999.0,75,-99.99,,,0.00,Acu-Link.com,2013-06-23 22:10:00,
2013-06-23 17:25:00,88.3,79.7,29.76,NE,45,0.0,-999.0,76,-99.99,,,0.00,Acu-Link.com,2013-06-23 22:25:00,
2013-06-23 17:40:00,93.0,80.4,29.77,SSE,157,2.2,-999.0,67,-99.99,,,0.00,Acu-Link.com,2013-06-23 22:40:00,
2013-06-23 17:56:00,89.4,79.6,29.77,ENE,67,0.0,-999.0,73,-99.99,,,0.00,Acu-Link.com,2013-06-23 22:56:00,
2013-06-23 18:11:00,90.3,79.6,29.75,East,90,0.0,-999.0,71,-99.99,,,0.00,Acu-Link.com,2013-06-23 23:11:00,
2013-06-23 18:26:00,88.7,79.3,29.76,SSE,157,0.0,-999.0,74,-99.99,,,0.00,Acu-Link.com,2013-06-23 23:26:00,
2013-06-23 18:41:00,87.3,79.6,29.75,SSE,157,0.0,-999.0,78,-99.99,,,0.00,Acu-Link.com,2013-06-23 23:41:00,
2013-06-23 18:56:00,86.7,80.5,29.76,ESE,112,0.0,-999.0,82,-99.99,,,0.00,Acu-Link.com,2013-06-23 23:56:00,
2013-06-23 19:11:00,85.3,78.8,29.78,ESE,112,0.0,-999.0,81,-99.99,,,0.00,Acu-Link.com,2013-06-24 00:11:00,
2013-06-23 19:26:00,84.2,79.5,29.78,ESE,112,0.0,-999.0,86,-99.99,,,0.00,Acu-Link.com,2013-06-24 00:26:00,
2013-06-23 19:42:00,82.4,79.2,29.77,ESE,112,0.0,-999.0,90,-99.99,,,0.00,Acu-Link.com,2013-06-24 00:42:00,
2013-06-23 19:57:00,81.1,79.2,29.79,ESE,112,0.0,-999.0,94,-99.99,,,0.00,Acu-Link.com,2013-06-24 00:57:00,
2013-06-23 20:12:00,78.6,78.3,29.79,ESE,112,0.0,-999.0,99,-99.99,,,0.00,Acu-Link.com,2013-06-24 01:12:00,
2013-06-23 20:27:00,77.5,77.2,29.80,ESE,112,0.0,-999.0,99,-99.99,,,0.00,Acu-Link.com,2013-06-24 01:27:00,
2013-06-23 20:42:00,75.7,75.4,29.80,ESE,112,0.0,-999.0,99,-99.99,,,0.00,Acu-Link.com,2013-06-24 01:42:00,
2013-06-23 20:57:00,75.0,74.7,29.80,ESE,112,0.0,-999.0,99,-99.99,,,0.00,Acu-Link.com,2013-06-24 01:57:00,
2013-06-23 21:12:00,74.1,73.8,29.80,ESE,112,0.0,-999.0,99,-99.99,,,0.00,Acu-Link.com,2013-06-24 02:12:00,
2013-06-23 21:27:00,73.2,72.9,29.81,ESE,112,0.0,-999.0,99,-99.99,,,0.00,Acu-Link.com,2013-06-24 02:27:00,
2013-06-23 21:42:00,72.9,72.6,29.80,SSE,157,0.0,-999.0,99,-99.99,,,0.00,Acu-Link.com,2013-06-24 02:42:00,
2013-06-23 21:58:00,72.5,72.2,29.82,SSE,157,0.0,-999.0,99,-99.99,,,0.00,Acu-Link.com,2013-06-24 02:58:00,
2013-06-23 22:13:00,72.1,71.8,29.82,SSE,157,0.0,-999.0,99,-99.99,,,0.00,Acu-Link.com,2013-06-24 03:13:00,
2013-06-23 22:28:00,71.6,23.0,29.81,SSE,157,0.0,-999.0,16,-99.99,,,0.00,Acu-Link.com,2013-06-24 03:28:00,
2013-06-23 22:43:00,71.6,30.7,29.81,SSE,157,0.0,-999.0,22,-99.99,,,0.00,Acu-Link.com,2013-06-24 03:43:00,
2013-06-23 22:58:00,72.5,20.6,29.81,SE,135,0.0,-999.0,14,-99.99,,,0.00,Acu-Link.com,2013-06-24 03:58:00,
2013-06-23 23:13:00,72.9,26.9,29.80,SE,135,0.0,-999.0,18,-99.99,,,0.00,Acu-Link.com,2013-06-24 04:13:00,
2013-06-23 23:28:00,73.2,-1.7,29.80,SE,135,0.0,-999.0,5,-99.99,,,0.00,Acu-Link.com,2013-06-24 04:28:00,
2013-06-23 23:43:00,72.5,44.7,29.80,SE,135,0.0,-999.0,37,-99.99,,,0.00,Acu-Link.com,2013-06-24 04:43:00,
2013-06-23 23:58:00,72.3,22.1,29.81,SE,135,0.0,-999.0,15,-99.99,,,0.00,Acu-Link.com,2013-06-24 04:58:00,